Powrót do katalogu

STARLINK-37561

AktywnyŁącznośćVLEO
NORAD 69821·PAYLOAD·🇺🇸 United States

Wystrzelony Jul 5, 2026 z Cape Canaveral Space Force Station

Loading…

Następne Przeloty (najbliższe 24 godziny)

TLE

ŚwieżeSource: CelesTrak SupGP

Epoka: Sep 15, 2026, 04:10 UTC

1 69821C 26154C   26258.17409722  .00074268  00000+0  21940-2 0  2581
2 69821  53.1586 356.2667 0001063  94.4135 326.0600 15.34357777    14

Śledź STARLINK-37561 w czasie rzeczywistym z AllMySat

Download on the App Store